﻿測定場所 (Monitoring sites),日付 (Measurement date),時間 (Measurement time),線量率 最大値 (max) μGy/h,線量率 最小値 (min) μGy/h,線量率 平均値 (average) μGy/h,
江東 (Koto),2021-05-02,23:01～24:00,0.0390,0.0350,0.0373,
江東 (Koto),2021-05-02,22:01～23:00,0.0390,0.0353,0.0371,
江東 (Koto),2021-05-02,21:01～22:00,0.0393,0.0357,0.0373,
江東 (Koto),2021-05-02,20:01～21:00,0.0394,0.0353,0.0373,
江東 (Koto),2021-05-02,19:01～20:00,0.0395,0.0363,0.0378,
江東 (Koto),2021-05-02,18:01～19:00,0.0415,0.0367,0.0386,
江東 (Koto),2021-05-02,17:01～18:00,0.0429,0.0376,0.0401,
江東 (Koto),2021-05-02,16:01～17:00,0.0416,0.0362,0.0390,
江東 (Koto),2021-05-02,15:01～16:00,0.0413,0.0371,0.0391,
江東 (Koto),2021-05-02,14:01～15:00,0.0412,0.0359,0.0389,
江東 (Koto),2021-05-02,13:01～14:00,0.0395,0.0353,0.0376,
江東 (Koto),2021-05-02,12:01～13:00,0.0403,0.0350,0.0375,
江東 (Koto),2021-05-02,11:01～12:00,0.0395,0.0354,0.0376,
江東 (Koto),2021-05-02,10:01～11:00,0.0395,0.0354,0.0377,
江東 (Koto),2021-05-02,09:01～10:00,0.0393,0.0354,0.0374,
江東 (Koto),2021-05-02,08:01～09:00,0.0389,0.0356,0.0375,
江東 (Koto),2021-05-02,07:01～08:00,0.0395,0.0352,0.0373,
江東 (Koto),2021-05-02,06:01～07:00,0.0403,0.0353,0.0372,
江東 (Koto),2021-05-02,05:01～06:00,0.0403,0.0347,0.0371,
江東 (Koto),2021-05-02,04:01～05:00,0.0400,0.0348,0.0372,
江東 (Koto),2021-05-02,03:01～04:00,0.0392,0.0349,0.0373,
江東 (Koto),2021-05-02,02:01～03:00,0.0386,0.0353,0.0371,
江東 (Koto),2021-05-02,01:01～02:00,0.0403,0.0343,0.0375,
江東 (Koto),2021-05-02,00:01～01:00,0.0416,0.0362,0.0386,
江東 (Koto),2021-05-01,23:01～24:00,0.0444,0.0386,0.0417,
江東 (Koto),2021-05-01,22:01～23:00,0.0476,0.0409,0.0442,
江東 (Koto),2021-05-01,21:01～22:00,0.0481,0.0395,0.0435,
江東 (Koto),2021-05-01,20:01～21:00,0.0503,0.0455,0.0481,
江東 (Koto),2021-05-01,19:01～20:00,0.0484,0.0371,0.0419,
江東 (Koto),2021-05-01,18:01～19:00,0.0398,0.0352,0.0375,
江東 (Koto),2021-05-01,17:01～18:00,0.0412,0.0345,0.0384,
江東 (Koto),2021-05-01,16:01～17:00,0.0441,0.0383,0.0414,
江東 (Koto),2021-05-01,15:01～16:00,0.0446,0.0362,0.0398,
江東 (Koto),2021-05-01,14:01～15:00,0.0394,0.0357,0.0377,
江東 (Koto),2021-05-01,13:01～14:00,0.0400,0.0357,0.0376,
江東 (Koto),2021-05-01,12:01～13:00,0.0397,0.0346,0.0374,
江東 (Koto),2021-05-01,11:01～12:00,0.0395,0.0352,0.0375,
江東 (Koto),2021-05-01,10:01～11:00,0.0393,0.0350,0.0372,
江東 (Koto),2021-05-01,09:01～10:00,0.0388,0.0347,0.0372,
江東 (Koto),2021-05-01,08:01～09:00,0.0397,0.0344,0.0374,
江東 (Koto),2021-05-01,07:01～08:00,0.0405,0.0353,0.0373,
江東 (Koto),2021-05-01,06:01～07:00,0.0398,0.0344,0.0373,
江東 (Koto),2021-05-01,05:01～06:00,0.0387,0.0343,0.0371,
江東 (Koto),2021-05-01,04:01～05:00,0.0391,0.0347,0.0371,
江東 (Koto),2021-05-01,03:01～04:00,0.0390,0.0357,0.0373,
江東 (Koto),2021-05-01,02:01～03:00,0.0399,0.0357,0.0374,
江東 (Koto),2021-05-01,01:01～02:00,0.0397,0.0346,0.0373,
江東 (Koto),2021-05-01,00:01～01:00,0.0393,0.0347,0.0372,
江東 (Koto),2021-04-30,23:01～24:00,0.0390,0.0350,0.0372,
江東 (Koto),2021-04-30,22:01～23:00,0.0398,0.0357,0.0373,
江東 (Koto),2021-04-30,21:01～22:00,0.0398,0.0353,0.0374,
江東 (Koto),2021-04-30,20:01～21:00,0.0393,0.0353,0.0372,
江東 (Koto),2021-04-30,19:01～20:00,0.0389,0.0354,0.0372,
江東 (Koto),2021-04-30,18:01～19:00,0.0394,0.0352,0.0374,
江東 (Koto),2021-04-30,17:01～18:00,0.0392,0.0352,0.0372,
江東 (Koto),2021-04-30,16:01～17:00,0.0394,0.0353,0.0374,
江東 (Koto),2021-04-30,15:01～16:00,0.0390,0.0354,0.0373,
江東 (Koto),2021-04-30,14:01～15:00,0.0399,0.0350,0.0372,
江東 (Koto),2021-04-30,13:01～14:00,0.0392,0.0355,0.0372,
江東 (Koto),2021-04-30,12:01～13:00,0.0390,0.0353,0.0372,
江東 (Koto),2021-04-30,11:01～12:00,0.0391,0.0346,0.0371,
江東 (Koto),2021-04-30,10:01～11:00,0.0393,0.0347,0.0373,
江東 (Koto),2021-04-30,09:01～10:00,0.0395,0.0352,0.0370,
江東 (Koto),2021-04-30,08:01～09:00,0.0398,0.0350,0.0371,
江東 (Koto),2021-04-30,07:01～08:00,0.0395,0.0348,0.0374,
江東 (Koto),2021-04-30,06:01～07:00,0.0390,0.0354,0.0371,
江東 (Koto),2021-04-30,05:01～06:00,0.0408,0.0343,0.0371,
江東 (Koto),2021-04-30,04:01～05:00,0.0397,0.0345,0.0372,
江東 (Koto),2021-04-30,03:01～04:00,0.0401,0.0336,0.0371,
江東 (Koto),2021-04-30,02:01～03:00,0.0398,0.0345,0.0370,
江東 (Koto),2021-04-30,01:01～02:00,0.0398,0.0356,0.0380,
江東 (Koto),2021-04-30,00:01～01:00,0.0407,0.0360,0.0386,
江東 (Koto),2021-04-29,23:01～24:00,0.0429,0.0383,0.0403,
江東 (Koto),2021-04-29,22:01～23:00,0.0432,0.0386,0.0411,
江東 (Koto),2021-04-29,21:01～22:00,0.0426,0.0375,0.0398,
江東 (Koto),2021-04-29,20:01～21:00,0.0415,0.0367,0.0391,
江東 (Koto),2021-04-29,19:01～20:00,0.0411,0.0370,0.0391,
江東 (Koto),2021-04-29,18:01～19:00,0.0426,0.0382,0.0398,
江東 (Koto),2021-04-29,17:01～18:00,0.0431,0.0384,0.0407,
江東 (Koto),2021-04-29,16:01～17:00,0.0417,0.0374,0.0396,
江東 (Koto),2021-04-29,15:01～16:00,0.0419,0.0367,0.0388,
江東 (Koto),2021-04-29,14:01～15:00,0.0405,0.0358,0.0382,
江東 (Koto),2021-04-29,13:01～14:00,0.0397,0.0357,0.0378,
江東 (Koto),2021-04-29,12:01～13:00,0.0406,0.0363,0.0384,
江東 (Koto),2021-04-29,11:01～12:00,0.0409,0.0367,0.0385,
江東 (Koto),2021-04-29,10:01～11:00,0.0400,0.0359,0.0383,
江東 (Koto),2021-04-29,09:01～10:00,0.0405,0.0354,0.0383,
江東 (Koto),2021-04-29,08:01～09:00,0.0401,0.0363,0.0384,
江東 (Koto),2021-04-29,07:01～08:00,0.0414,0.0367,0.0385,
江東 (Koto),2021-04-29,06:01～07:00,0.0415,0.0365,0.0383,
江東 (Koto),2021-04-29,05:01～06:00,0.0401,0.0357,0.0382,
江東 (Koto),2021-04-29,04:01～05:00,0.0420,0.0370,0.0392,
江東 (Koto),2021-04-29,03:01～04:00,0.0415,0.0374,0.0394,
江東 (Koto),2021-04-29,02:01～03:00,0.0407,0.0356,0.0387,
江東 (Koto),2021-04-29,01:01～02:00,0.0400,0.0357,0.0381,
江東 (Koto),2021-04-29,00:01～01:00,0.0403,0.0359,0.0383,
江東 (Koto),2021-04-28,23:01～24:00,0.0409,0.0358,0.0384,
江東 (Koto),2021-04-28,22:01～23:00,0.0396,0.0353,0.0375,
江東 (Koto),2021-04-28,21:01～22:00,0.0406,0.0356,0.0377,
江東 (Koto),2021-04-28,20:01～21:00,0.0395,0.0358,0.0378,
江東 (Koto),2021-04-28,19:01～20:00,0.0400,0.0361,0.0378,
江東 (Koto),2021-04-28,18:01～19:00,0.0418,0.0355,0.0379,
江東 (Koto),2021-04-28,17:01～18:00,0.0415,0.0348,0.0375,
江東 (Koto),2021-04-28,16:01～17:00,0.0401,0.0351,0.0377,
江東 (Koto),2021-04-28,15:01～16:00,0.0398,0.0353,0.0376,
江東 (Koto),2021-04-28,14:01～15:00,0.0395,0.0358,0.0376,
江東 (Koto),2021-04-28,13:01～14:00,0.0395,0.0354,0.0376,
江東 (Koto),2021-04-28,12:01～13:00,0.0405,0.0350,0.0376,
江東 (Koto),2021-04-28,11:01～12:00,0.0391,0.0354,0.0377,
江東 (Koto),2021-04-28,10:01～11:00,0.0398,0.0354,0.0378,
江東 (Koto),2021-04-28,09:01～10:00,0.0399,0.0358,0.0378,
江東 (Koto),2021-04-28,08:01～09:00,0.0402,0.0362,0.0381,
江東 (Koto),2021-04-28,07:01～08:00,0.0402,0.0362,0.0382,
江東 (Koto),2021-04-28,06:01～07:00,0.0409,0.0355,0.0378,
江東 (Koto),2021-04-28,05:01～06:00,0.0405,0.0361,0.0381,
江東 (Koto),2021-04-28,04:01～05:00,0.0402,0.0354,0.0380,
江東 (Koto),2021-04-28,03:01～04:00,0.0404,0.0363,0.0382,
江東 (Koto),2021-04-28,02:01～03:00,0.0402,0.0350,0.0378,
江東 (Koto),2021-04-28,01:01～02:00,0.0396,0.0351,0.0376,
江東 (Koto),2021-04-28,00:01～01:00,0.0398,0.0354,0.0379,
江東 (Koto),2021-04-27,23:01～24:00,0.0392,0.0353,0.0377,
江東 (Koto),2021-04-27,22:01～23:00,0.0398,0.0355,0.0377,
江東 (Koto),2021-04-27,21:01～22:00,0.0394,0.0350,0.0376,
江東 (Koto),2021-04-27,20:01～21:00,0.0396,0.0353,0.0376,
江東 (Koto),2021-04-27,19:01～20:00,0.0402,0.0360,0.0378,
江東 (Koto),2021-04-27,18:01～19:00,0.0400,0.0361,0.0376,
江東 (Koto),2021-04-27,17:01～18:00,0.0402,0.0352,0.0377,
江東 (Koto),2021-04-27,16:01～17:00,0.0396,0.0355,0.0377,
江東 (Koto),2021-04-27,15:01～16:00,0.0395,0.0360,0.0377,
江東 (Koto),2021-04-27,14:01～15:00,0.0405,0.0353,0.0378,
江東 (Koto),2021-04-27,13:01～14:00,0.0395,0.0354,0.0376,
江東 (Koto),2021-04-27,12:01～13:00,0.0402,0.0358,0.0378,
江東 (Koto),2021-04-27,11:01～12:00,0.0398,0.0354,0.0375,
江東 (Koto),2021-04-27,10:01～11:00,0.0402,0.0356,0.0377,
江東 (Koto),2021-04-27,09:01～10:00,0.0399,0.0358,0.0378,
江東 (Koto),2021-04-27,08:01～09:00,0.0405,0.0355,0.0377,
江東 (Koto),2021-04-27,07:01～08:00,0.0401,0.0357,0.0378,
江東 (Koto),2021-04-27,06:01～07:00,0.0398,0.0353,0.0376,
江東 (Koto),2021-04-27,05:01～06:00,0.0412,0.0349,0.0377,
江東 (Koto),2021-04-27,04:01～05:00,0.0400,0.0360,0.0377,
江東 (Koto),2021-04-27,03:01～04:00,0.0395,0.0360,0.0377,
江東 (Koto),2021-04-27,02:01～03:00,0.0398,0.0351,0.0378,
江東 (Koto),2021-04-27,01:01～02:00,0.0402,0.0347,0.0376,
江東 (Koto),2021-04-27,00:01～01:00,0.0410,0.0355,0.0379,
江東 (Koto),2021-04-26,23:01～24:00,0.0395,0.0358,0.0378,
江東 (Koto),2021-04-26,22:01～23:00,0.0404,0.0357,0.0376,
江東 (Koto),2021-04-26,21:01～22:00,0.0409,0.0358,0.0378,
江東 (Koto),2021-04-26,20:01～21:00,0.0394,0.0347,0.0375,
江東 (Koto),2021-04-26,19:01～20:00,0.0400,0.0356,0.0378,
江東 (Koto),2021-04-26,18:01～19:00,0.0403,0.0355,0.0377,
江東 (Koto),2021-04-26,17:01～18:00,0.0398,0.0356,0.0377,
江東 (Koto),2021-04-26,16:01～17:00,0.0395,0.0358,0.0377,
江東 (Koto),2021-04-26,15:01～16:00,0.0398,0.0362,0.0378,
江東 (Koto),2021-04-26,14:01～15:00,0.0402,0.0350,0.0378,
江東 (Koto),2021-04-26,13:01～14:00,0.0403,0.0360,0.0377,
江東 (Koto),2021-04-26,12:01～13:00,0.0399,0.0356,0.0377,
江東 (Koto),2021-04-26,11:01～12:00,0.0394,0.0361,0.0376,
江東 (Koto),2021-04-26,10:01～11:00,0.0405,0.0360,0.0378,
江東 (Koto),2021-04-26,09:01～10:00,0.0400,0.0356,0.0376,
江東 (Koto),2021-04-26,08:01～09:00,0.0397,0.0357,0.0380,
江東 (Koto),2021-04-26,07:01～08:00,0.0395,0.0352,0.0376,
江東 (Koto),2021-04-26,06:01～07:00,0.0398,0.0354,0.0377,
江東 (Koto),2021-04-26,05:01～06:00,0.0389,0.0359,0.0377,
江東 (Koto),2021-04-26,04:01～05:00,0.0401,0.0354,0.0378,
江東 (Koto),2021-04-26,03:01～04:00,0.0397,0.0354,0.0378,
江東 (Koto),2021-04-26,02:01～03:00,0.0398,0.0350,0.0377,
江東 (Koto),2021-04-26,01:01～02:00,0.0404,0.0353,0.0377,
江東 (Koto),2021-04-26,00:01～01:00,0.0399,0.0360,0.0378,
